星链-1017 (STARLINK-1017 )

导读 | 星芒AI

STARLINK-1017 是 SpaceX Starlink 卫星互联网项目中的一颗低轨道通信卫星。该卫星属于 Starlink 计划的第二批卫星群,于 2020 年 11 月发射,旨在为全球用户提供高速、低延迟的宽带互联网服务。它运行在约 550 公里的轨道高度,配备先进相控阵天线和激光通信系统,以实现与其他 Starlink 卫星的高速数据传输。作为 SpaceX 扩展全球网络覆盖计划的一部分,STARLINK-1017 有助于提升偏远地区的网络接入能力。

基本信息
目录编号:
44723
目录名称:
STARLINK-1017
国际标识:
2019-074L
轨道中心:
EARTH
卫星名称:
星链-1017
卫星全名:
星链-1017 (STARLINK-1017 )
卫星状态:
在轨 (已飞行2179 天)
发射日期:
2019-11-11 UTC
国别 :
美国 (US)
星等 :
--
轨道信息
数据来源 国际轨道数据
星历时间: 2025-10-28T20:15:39+0800
19小时前
查看轨道信息
半长轴: 6900.135km
偏心率: 0.00017
轨道倾角: 53.050°
近地点辐角 199.366°
升交点赤经 56.762°
平近点角 160.727°
近地点: 520.826km
远地点: 523.174km
周期: 95.071分钟
每日圈数: 15.146644
详细信息
固有亮度:
5
最大亮度:
2.5
卫星平台:
Starlink V1.0
覆盖范围:
全球
运营商:
太空探索技术公司
运营商所在国:
美国
制造商(研发单位):
太空探索技术公司
制造商所在国:
美国
使用方式:
暂无
卫星简介
星链(Starlink)计划是由太空探索技术公司(SpaceX)提出的一个巨型低轨卫星互联网星座项目,计划在2019年至2024年间在太空搭建由约1.2万颗卫星组成的“星链”网络,其中1584颗将部署在地球上空550千米处的近地轨道,并从2020年开始工作。该卫星仍在工作。
2D轨道图
3D轨道图
轨道高度分析图
轨道倾角分析图
轨道综合分析图
查看轨道综合分析图